Location: Clason Point
(40.8136°N, 73.8618°W)
Time: 09:20:50
(UTC+00:00)

Cosmos 1536 Rocket - Pass Details

Date: 16 September 2019
Orbit: 604 x 633 km, 82.5° (Epoch: 18 October)

Event Time Altitude Azimuth Distance (km) Brightness Sun altitude
Rises 23:36:21 0° 357° (N) 2,872 7.2 -7.1°
Reaches altitude 10° 23:38:38 10° 2° (N) 1,962 6.2 -7.5°
Maximum altitude 23:42:52 52° 80° (E) 754 3.7 -8.3°
Drops below altitude 10° 23:47:04 10° 157° (SSE) 1,946 5.8 -9.1°
Sets 23:49:19 0° 162° (SSE) 2,846 6.7 -9.5°
